QPF
0.10 0.07 0.06 0.05 0.04 0.01 0.00 0.00 0.00 0.00 0.00 0.00 0.00 0.00 0.00 0.00 0.00 0.00 0.00 0.00 0.00 0.01 0.01 0.00 0.01 0.00 0.00 0.01 0.01 0.01 0.01 0.01 0.01 0.01 0.01 0.01 0.01 0.01 0.01 0.01 0.01 0.01 0.01
0.10 0.08 0.06 0.04 0.04 0.03 0.01 0.00 0.00 0.00 0.00 0.00 0.00 0.00 0.00 0.00 0.00 0.00 0.00 0.00 0.00 0.00 0.01 0.01 0.01 0.00 0.00 0.01 0.01 0.01 0.01 0.00 0.00 0.00 0.00 0.01 0.01 0.01 0.01 0.01 0.01 0.01 0.01
0.13 0.11 0.07 0.05 0.03 0.03 0.01 0.00 0.00 0.00 0.00 0.00 0.00 0.00 0.00 0.00 0.00 0.00 0.00 0.00 0.00 0.00 0.00 0.00 0.01 0.01 0.00 0.00 0.00 0.00 0.00 0.00 0.00 0.00 0.01 0.01 0.01 0.01 0.01 0.01 0.01 0.01 0.01
0.16 0.14 0.10 0.06 0.04 0.03 0.02 0.01 0.00 0.00 0.00 0.00 0.00 0.00 0.00 0.00 0.00 0.00 0.00 0.00 0.00 0.00 0.00 0.00 0.00 0.01 0.00 0.00 0.00 0.00 0.00 0.00 0.00 0.01 0.01 0.01 0.01 0.01 0.01 0.01 0.01 0.01 0.02
0.20 0.18 0.14 0.08 0.05 0.03 0.02 0.01 0.00 0.00 0.00 0.00 0.00 0.00 0.00 0.00 0.00 0.00 0.00 0.00 0.00 0.00 0.00 0.00 0.00 0.01 0.01 0.00 0.00 0.00 0.00 0.00 0.00 0.01 0.01 0.01 0.01 0.01 0.01 0.01 0.01 0.02 0.02
0.21 0.21 0.19 0.14 0.08 0.05 0.03 0.02 0.01 0.00 0.00 0.00 0.00 0.00 0.00 0.00 0.00 0.00 0.00 0.00 0.00 0.00 0.00 0.00 0.00 0.00 0.00 0.00 0.00 0.00 0.00 0.00 0.00 0.01 0.01 0.01 0.01 0.01 0.01 0.01 0.02 0.02 0.02
0.23 0.21 0.20 0.19 0.13 0.07 0.04 0.02 0.01 0.00 0.00 0.00 0.00 0.00 0.00 0.00 0.00 0.00 0.00 0.00 0.00 0.00 0.00 0.00 0.00 0.00 0.00 0.00 0.00 0.00 0.00 0.00 0.00 0.00 0.01 0.01 0.01 0.01 0.01 0.02 0.02 0.03 0.03
0.26 0.23 0.21 0.19 0.17 0.11 0.05 0.03 0.01 0.01 0.00 0.00 0.00 0.00 0.00 0.00 0.00 0.00 0.00 0.00 0.00 0.00 0.00 0.00 0.00 0.00 0.00 0.00 0.00 0.00 0.00 0.00 0.00 0.00 0.01 0.01 0.01 0.01 0.02 0.02 0.03 0.03 0.03
0.28 0.25 0.21 0.19 0.18 0.15 0.09 0.04 0.02 0.01 0.00 0.00 0.00 0.00 0.00 0.00 0.00 0.00 0.00 0.00 0.00 0.00 0.00 0.00 0.00 0.00 0.00 0.00 0.00 0.00 0.00 0.00 0.00 0.00 0.00 0.00 0.01 0.01 0.02 0.02 0.03 0.03 0.02
0.32 0.30 0.25 0.22 0.18 0.16 0.11 0.05 0.02 0.01 0.00 0.00 0.00 0.00 0.00 0.00 0.00 0.00 0.00 0.00 0.00 0.00 0.00 0.00 0.00 0.00 0.00 0.00 0.00 0.00 0.00 0.00 0.00 0.00 0.00 0.00 0.01 0.01 0.02 0.02 0.02 0.02 0.02
0.30 0.33 0.29 0.27 0.23 0.18 0.13 0.07 0.02 0.01 0.00 0.00 0.00 0.00 0.00 0.00 0.00 0.00 0.00 0.00 0.00 0.00 0.00 0.00 0.00 0.00 0.00 0.00 0.00 0.00 0.00 0.00 0.00 0.00 0.00 0.00 0.00 0.01 0.01 0.01 0.01 0.02 0.02
0.30 0.31 0.31 0.26 0.24 0.22 0.16 0.09 0.04 0.01 0.00 0.00 0.00 0.00 0.00 0.00 0.00 0.00 0.00 0.00 0.00 0.00 0.00 0.00 0.00 0.00 0.00 0.00 0.00 0.00 0.00 0.00 0.00 0.00 0.00 0.00 0.00 0.00 0.01 0.01 0.01 0.01 0.02
0.30 0.32 0.30 0.27 0.22 0.19 0.16 0.10 0.05 0.02 0.01 0.00 0.00 0.00 0.00 0.00 0.00 0.00 0.00 0.00 0.00 0.00 0.00 0.00 0.00 0.00 0.00 0.00 0.00 0.00 0.00 0.00 0.00 0.00 0.00 0.00 0.00 0.00 0.00 0.01 0.01 0.01 0.02
0.29 0.29 0.30 0.28 0.23 0.18 0.14 0.11 0.06 0.03 0.01 0.01 0.00 0.00 0.00 0.00 0.00 0.00 0.00 0.00 0.00 0.00 0.00 0.00 0.00 0.00 0.00 0.00 0.00 0.00 0.00 0.00 0.00 0.00 0.00 0.00 0.00 0.00 0.00 0.00 0.01 0.01 0.01
0.28 0.30 0.30 0.31 0.26 0.20 0.15 0.11 0.08 0.04 0.02 0.01 0.01 0.00 0.00 0.00 0.00 0.00 0.00 0.00 0.00 0.00 0.00 0.00 0.00 0.00 0.00 0.00 0.00 0.00 0.00 0.01 0.00 0.00 0.00 0.00 0.00 0.00 0.00 0.01 0.01 0.01 0.01
0.25 0.31 0.31 0.29 0.29 0.23 0.18 0.14 0.10 0.06 0.04 0.02 0.01 0.00 0.00 0.00 0.00 0.00 0.00 0.00 0.00 0.00 0.00 0.00 0.00 0.00 0.00 0.00 0.01 0.01 0.00 0.01 0.00 0.00 0.00 0.00 0.00 0.00 0.00 0.01 0.01 0.01 0.01
0.21 0.25 0.27 0.26 0.24 0.23 0.21 0.17 0.12 0.09 0.06 0.03 0.01 0.00 0.00 0.00 0.00 0.00 0.00 0.00 0.00 0.00 0.00 0.00 0.00 0.00 0.00 0.00 0.00 0.00 0.00 0.00 0.00 0.00 0.00 0.00 0.00 0.00 0.00 0.00 0.01 0.01 0.01
0.18 0.21 0.21 0.23 0.20 0.18 0.18 0.17 0.13 0.09 0.07 0.04 0.01 0.00 0.00 0.00 0.00 0.00 0.00 0.00 0.00 0.00 0.01 0.01 0.00 0.00 0.00 0.00 0.00 0.00 0.00 0.00 0.00 0.00 0.00 0.00 0.00 0.00 0.00 0.00 0.00 0.01 0.01
0.17 0.20 0.21 0.20 0.19 0.15 0.14 0.13 0.12 0.09 0.07 0.04 0.02 0.01 0.00 0.00 0.00 0.00 0.01 0.01 0.01 0.00 0.00 0.00 0.00 0.00 0.00 0.00 0.00 0.00 0.00 0.00 0.00 0.00 0.00 0.00 0.00 0.00 0.00 0.00 0.00 0.01 0.01
0.17 0.18 0.18 0.19 0.18 0.13 0.11 0.11 0.10 0.08 0.06 0.05 0.03 0.01 0.00 0.00 0.00 0.00 0.00 0.00 0.00 0.00 0.01 0.01 0.01 0.01 0.01 0.01 0.01 0.01 0.01 0.01 0.00 0.00 0.00 0.00 0.00 0.00 0.00 0.00 0.01 0.01 0.01
0.17 0.18 0.17 0.17 0.16 0.13 0.10 0.10 0.10 0.09 0.06 0.05 0.03 0.02 0.01 0.01 0.00 0.00 0.00 0.00 0.01 0.01 0.01 0.02 0.02 0.02 0.02 0.02 0.02 0.02 0.01 0.00 0.00 0.00 0.00 0.00 0.00 0.01 0.01 0.01 0.01 0.01 0.01
0.17 0.18 0.18 0.16 0.15 0.12 0.11 0.11 0.10 0.08 0.07 0.05 0.03 0.03 0.02 0.01 0.01 0.00 0.00 0.01 0.01 0.01 0.02 0.02 0.02 0.02 0.02 0.02 0.02 0.02 0.01 0.01 0.01 0.01 0.01 0.01 0.01 0.01 0.01 0.00 0.01 0.01 0.01
0.15 0.16 0.16 0.15 0.13 0.11 0.11 0.11 0.11 0.10 0.07 0.05 0.04 0.03 0.02 0.02 0.01 0.01 0.01 0.01 0.02 0.02 0.02 0.02 0.03 0.03 0.03 0.02 0.02 0.02 0.02 0.02 0.02 0.02 0.02 0.02 0.02 0.01 0.01 0.01 0.01 0.01 0.01
0.12 0.14 0.14 0.13 0.12 0.10 0.11 0.11 0.13 0.13 0.11 0.07 0.05 0.04 0.03 0.02 0.01 0.01 0.01 0.02 0.02 0.03 0.04 0.04 0.04 0.03 0.03 0.03 0.03 0.03 0.03 0.03 0.03 0.02 0.01 0.01 0.01 0.01 0.01 0.01 0.01 0.01 0.00
0.10 0.11 0.13 0.14 0.10 0.08 0.09 0.10 0.11 0.12 0.12 0.10 0.07 0.05 0.03 0.03 0.02 0.02 0.02 0.03 0.03 0.04 0.05 0.05 0.04 0.04 0.04 0.04 0.03 0.03 0.03 0.03 0.03 0.02 0.01 0.02 0.02 0.02 0.02 0.01 0.01 0.01 0.00
0.11 0.10 0.11 0.13 0.12 0.08 0.08 0.09 0.10 0.10 0.11 0.10 0.08 0.05 0.04 0.03 0.03 0.03 0.03 0.03 0.03 0.03 0.03 0.04 0.04 0.03 0.03 0.03 0.03 0.02 0.02 0.03 0.03 0.03 0.02 0.02 0.02 0.02 0.02 0.01 0.01 0.00 0.00
MSLP
1004.37 1004.53 1004.79 1005.20 1005.79 1006.57 1007.50 1008.54 1009.62 1010.64 1011.53 1012.25 1012.77 1013.11 1013.32 1013.46 1013.57 1013.71 1013.89 1014.13 1014.41 1014.70 1014.98 1015.23 1015.44 1015.63 1015.80 1015.97 1016.15 1016.33 1016.53 1016.71 1016.87 1016.99 1017.06 1017.06 1017.01 1016.89 1016.73 1016.51 1016.27 1016.00 1015.71
1003.65 1003.80 1004.10 1004.56 1005.23 1006.10 1007.13 1008.26 1009.42 1010.51 1011.47 1012.23 1012.80 1013.17 1013.40 1013.55 1013.66 1013.79 1013.96 1014.18 1014.44 1014.72 1014.98 1015.23 1015.43 1015.61 1015.77 1015.92 1016.07 1016.23 1016.39 1016.54 1016.67 1016.76 1016.81 1016.80 1016.74 1016.63 1016.46 1016.26 1016.01 1015.74 1015.44
1002.87 1003.03 1003.37 1003.92 1004.68 1005.65 1006.77 1007.99 1009.21 1010.37 1011.37 1012.18 1012.78 1013.19 1013.44 1013.61 1013.73 1013.85 1014.01 1014.22 1014.45 1014.71 1014.95 1015.18 1015.39 1015.56 1015.71 1015.85 1015.99 1016.12 1016.25 1016.36 1016.45 1016.50 1016.52 1016.49 1016.42 1016.30 1016.15 1015.95 1015.72 1015.46 1015.18
1002.06 1002.24 1002.65 1003.28 1004.14 1005.20 1006.40 1007.68 1008.96 1010.15 1011.18 1012.02 1012.65 1013.10 1013.40 1013.60 1013.75 1013.89 1014.04 1014.23 1014.44 1014.67 1014.90 1015.11 1015.30 1015.47 1015.63 1015.77 1015.90 1016.02 1016.12 1016.20 1016.25 1016.26 1016.24 1016.18 1016.09 1015.97 1015.82 1015.64 1015.43 1015.20 1014.94
1001.27 1001.47 1001.94 1002.66 1003.60 1004.74 1006.00 1007.32 1008.62 1009.82 1010.86 1011.72 1012.39 1012.89 1013.25 1013.51 1013.70 1013.87 1014.04 1014.23 1014.42 1014.62 1014.81 1015.00 1015.19 1015.35 1015.52 1015.67 1015.80 1015.92 1016.01 1016.07 1016.08 1016.06 1016.00 1015.91 1015.79 1015.66 1015.52 1015.36 1015.18 1014.98 1014.76
1000.55 1000.78 1001.29 1002.07 1003.09 1004.27 1005.56 1006.89 1008.18 1009.37 1010.41 1011.28 1011.99 1012.55 1012.98 1013.32 1013.59 1013.82 1014.02 1014.20 1014.38 1014.55 1014.71 1014.87 1015.04 1015.20 1015.37 1015.54 1015.69 1015.82 1015.91 1015.96 1015.96 1015.91 1015.82 1015.70 1015.57 1015.43 1015.29 1015.15 1015.01 1014.85 1014.66
999.98 1000.21 1000.75 1001.57 1002.61 1003.82 1005.11 1006.41 1007.66 1008.82 1009.84 1010.73 1011.47 1012.10 1012.62 1013.05 1013.41 1013.71 1013.96 1014.16 1014.33 1014.47 1014.60 1014.73 1014.87 1015.02 1015.20 1015.38 1015.56 1015.71 1015.82 1015.88 1015.87 1015.81 1015.71 1015.58 1015.43 1015.30 1015.17 1015.06 1014.94 1014.81 1014.65
999.59 999.79 1000.34 1001.16 1002.21 1003.40 1004.65 1005.91 1007.11 1008.22 1009.21 1010.10 1010.88 1011.57 1012.18 1012.71 1013.17 1013.55 1013.86 1014.09 1014.25 1014.37 1014.47 1014.56 1014.67 1014.82 1014.99 1015.19 1015.39 1015.58 1015.72 1015.80 1015.81 1015.76 1015.66 1015.53 1015.40 1015.27 1015.16 1015.07 1014.98 1014.88 1014.74
999.39 999.56 1000.08 1000.88 1001.90 1003.05 1004.25 1005.44 1006.57 1007.62 1008.58 1009.45 1010.26 1011.00 1011.69 1012.32 1012.87 1013.33 1013.70 1013.96 1014.14 1014.24 1014.31 1014.37 1014.46 1014.59 1014.76 1014.98 1015.21 1015.42 1015.60 1015.72 1015.77 1015.75 1015.67 1015.56 1015.44 1015.34 1015.25 1015.18 1015.12 1015.03 1014.91
999.39 999.50 999.97 1000.73 1001.69 1002.78 1003.92 1005.03 1006.09 1007.07 1007.98 1008.83 1009.65 1010.43 1011.18 1011.87 1012.50 1013.04 1013.46 1013.76 1013.95 1014.06 1014.12 1014.16 1014.23 1014.35 1014.52 1014.75 1015.00 1015.25 1015.47 1015.63 1015.72 1015.74 1015.70 1015.63 1015.54 1015.47 1015.41 1015.36 1015.31 1015.24 1015.11
999.52 999.56 999.97 1000.66 1001.57 1002.59 1003.65 1004.69 1005.67 1006.59 1007.44 1008.26 1009.06 1009.85 1010.63 1011.37 1012.06 1012.64 1013.11 1013.46 1013.68 1013.81 1013.87 1013.92 1013.99 1014.11 1014.29 1014.53 1014.80 1015.08 1015.33 1015.53 1015.66 1015.73 1015.73 1015.70 1015.66 1015.61 1015.58 1015.55 1015.51 1015.44 1015.31
999.73 999.70 1000.03 1000.65 1001.48 1002.43 1003.42 1004.39 1005.30 1006.15 1006.96 1007.73 1008.50 1009.28 1010.05 1010.81 1011.52 1012.14 1012.65 1013.04 1013.31 1013.48 1013.58 1013.66 1013.75 1013.88 1014.08 1014.33 1014.62 1014.91 1015.19 1015.42 1015.59 1015.70 1015.75 1015.76 1015.75 1015.73 1015.72 1015.71 1015.67 1015.60 1015.47
999.95 999.84 1000.08 1000.62 1001.37 1002.25 1003.17 1004.08 1004.94 1005.74 1006.49 1007.22 1007.95 1008.69 1009.44 1010.18 1010.90 1011.54 1012.09 1012.52 1012.85 1013.08 1013.24 1013.37 1013.51 1013.68 1013.91 1014.17 1014.47 1014.78 1015.07 1015.32 1015.51 1015.65 1015.73 1015.78 1015.79 1015.80 1015.81 1015.80 1015.77 1015.69 1015.55
1000.12 999.93 1000.08 1000.52 1001.19 1001.99 1002.86 1003.72 1004.54 1005.30 1006.01 1006.70 1007.38 1008.08 1008.79 1009.51 1010.21 1010.86 1011.44 1011.93 1012.32 1012.62 1012.87 1013.08 1013.29 1013.51 1013.77 1014.06 1014.37 1014.68 1014.97 1015.23 1015.43 1015.59 1015.69 1015.76 1015.80 1015.82 1015.83 1015.82 1015.78 1015.70 1015.56
1000.20 999.92 999.97 1000.32 1000.89 1001.63 1002.44 1003.26 1004.05 1004.79 1005.49 1006.15 1006.80 1007.46 1008.14 1008.82 1009.50 1010.15 1010.75 1011.29 1011.75 1012.14 1012.48 1012.79 1013.07 1013.37 1013.67 1013.99 1014.31 1014.62 1014.91 1015.17 1015.37 1015.53 1015.64 1015.72 1015.76 1015.79 1015.79 1015.77 1015.72 1015.63 1015.49
1000.19 999.81 999.76 1000.00 1000.48 1001.14 1001.89 1002.69 1003.47 1004.21 1004.90 1005.56 1006.20 1006.84 1007.49 1008.15 1008.81 1009.46 1010.08 1010.65 1011.18 1011.66 1012.09 1012.49 1012.86 1013.23 1013.59 1013.94 1014.28 1014.59 1014.88 1015.13 1015.33 1015.49 1015.60 1015.68 1015.72 1015.74 1015.73 1015.69 1015.62 1015.52 1015.37
1000.10 999.63 999.46 999.59 999.97 1000.54 1001.24 1002.01 1002.79 1003.55 1004.27 1004.95 1005.61 1006.25 1006.89 1007.54 1008.19 1008.83 1009.46 1010.07 1010.64 1011.19 1011.70 1012.18 1012.64 1013.08 1013.49 1013.88 1014.25 1014.58 1014.88 1015.13 1015.33 1015.49 1015.60 1015.67 1015.70 1015.70 1015.67 1015.60 1015.51 1015.38 1015.22
999.98 999.42 999.14 999.14 999.41 999.89 1000.53 1001.27 1002.05 1002.83 1003.60 1004.33 1005.03 1005.70 1006.36 1007.00 1007.64 1008.28 1008.91 1009.54 1010.15 1010.74 1011.31 1011.86 1012.39 1012.89 1013.36 1013.80 1014.21 1014.57 1014.89 1015.16 1015.37 1015.54 1015.65 1015.72 1015.73 1015.71 1015.64 1015.54 1015.41 1015.24 1015.06
999.89 999.24 998.84 998.72 998.86 999.24 999.81 1000.51 1001.28 1002.10 1002.91 1003.71 1004.47 1005.19 1005.88 1006.55 1007.20 1007.83 1008.46 1009.08 1009.70 1010.31 1010.92 1011.52 1012.10 1012.66 1013.19 1013.69 1014.14 1014.55 1014.91 1015.21 1015.45 1015.64 1015.76 1015.83 1015.83 1015.78 1015.67 1015.52 1015.34 1015.14 1014.91
999.87 999.14 998.64 998.39 998.40 998.66 999.13 999.77 1000.53 1001.37 1002.23 1003.09 1003.92 1004.71 1005.46 1006.16 1006.82 1007.45 1008.07 1008.68 1009.30 1009.91 1010.54 1011.17 1011.79 1012.41 1012.99 1013.55 1014.06 1014.53 1014.94 1015.29 1015.57 1015.79 1015.93 1015.99 1015.99 1015.91 1015.77 1015.57 1015.33 1015.06 1014.79
999.95 999.16 998.56 998.18 998.05 998.18 998.53 999.09 999.82 1000.65 1001.56 1002.48 1003.39 1004.25 1005.06 1005.80 1006.49 1007.13 1007.75 1008.35 1008.95 1009.56 1010.19 1010.84 1011.50 1012.15 1012.79 1013.41 1013.99 1014.52 1014.99 1015.39 1015.73 1015.98 1016.14 1016.22 1016.20 1016.10 1015.91 1015.66 1015.36 1015.03 1014.69
1000.14 999.31 998.61 998.11 997.83 997.81 998.03 998.49 999.15 999.97 1000.89 1001.86 1002.83 1003.77 1004.65 1005.46 1006.19 1006.85 1007.47 1008.07 1008.67 1009.28 1009.91 1010.58 1011.26 1011.95 1012.65 1013.32 1013.96 1014.55 1015.08 1015.54 1015.91 1016.20 1016.39 1016.47 1016.45 1016.32 1016.10 1015.80 1015.45 1015.05 1014.65
1000.41 999.55 998.77 998.15 997.72 997.54 997.62 997.96 998.53 999.31 1000.23 1001.23 1002.27 1003.28 1004.24 1005.12 1005.91 1006.62 1007.27 1007.88 1008.49 1009.11 1009.75 1010.43 1011.15 1011.87 1012.61 1013.33 1014.01 1014.65 1015.23 1015.72 1016.13 1016.44 1016.64 1016.73 1016.70 1016.56 1016.31 1015.98 1015.57 1015.13 1014.66
1000.72 999.84 998.99 998.25 997.69 997.35 997.28 997.48 997.96 998.67 999.58 1000.61 1001.70 1002.79 1003.84 1004.80 1005.67 1006.45 1007.16 1007.82 1008.45 1009.10 1009.77 1010.48 1011.21 1011.97 1012.73 1013.47 1014.19 1014.85 1015.44 1015.96 1016.38 1016.69 1016.90 1016.98 1016.95 1016.80 1016.53 1016.17 1015.74 1015.25 1014.74
1001.01 1000.11 999.20 998.37 997.67 997.19 996.97 997.05 997.43 998.09 998.97 1000.03 1001.17 1002.34 1003.48 1004.55 1005.52 1006.39 1007.18 1007.90 1008.60 1009.29 1010.00 1010.74 1011.49 1012.27 1013.04 1013.79 1014.50 1015.15 1015.74 1016.24 1016.64 1016.94 1017.13 1017.21 1017.17 1017.01 1016.74 1016.37 1015.92 1015.42 1014.88
1001.21 1000.31 999.35 998.43 997.63 997.02 996.69 996.66 996.95 997.56 998.44 999.52 1000.72 1001.98 1003.22 1004.40 1005.49 1006.47 1007.35 1008.17 1008.94 1009.69 1010.45 1011.21 1011.98 1012.76 1013.52 1014.25 1014.93 1015.55 1016.09 1016.55 1016.91 1017.18 1017.35 1017.41 1017.36 1017.20 1016.93 1016.56 1016.11 1015.60 1015.05
Thickness
5697 5697 5696 5695 5695 5694 5693 5691 5689 5688 5686 5686 5685 5683 5681 5679 5677 5675 5673 5672 5669 5667 5664 5661 5658 5654 5651 5647 5644 5640 5636 5632 5628 5624 5620 5617 5613 5609 5605 5602 5598 5594 5591
5691 5691 5691 5690 5689 5689 5688 5686 5684 5682 5681 5680 5679 5678 5676 5674 5672 5670 5668 5666 5663 5661 5658 5656 5652 5649 5645 5642 5638 5634 5630 5626 5622 5618 5614 5610 5606 5602 5598 5594 5590 5586 5582
5684 5684 5685 5685 5684 5684 5683 5681 5678 5676 5675 5674 5673 5672 5671 5669 5667 5665 5663 5661 5658 5655 5653 5650 5647 5643 5640 5636 5632 5628 5624 5620 5616 5612 5607 5603 5599 5595 5591 5586 5582 5578 5574
5678 5677 5679 5679 5679 5678 5676 5675 5673 5671 5669 5667 5666 5666 5665 5663 5662 5660 5657 5655 5652 5650 5647 5644 5641 5637 5634 5630 5627 5622 5618 5614 5609 5605 5601 5597 5592 5588 5583 5579 5574 5570 5566
5670 5671 5672 5673 5674 5673 5671 5670 5668 5667 5664 5662 5660 5658 5658 5657 5656 5654 5652 5650 5647 5644 5641 5638 5635 5631 5628 5624 5621 5616 5612 5607 5603 5599 5594 5590 5585 5580 5576 5571 5566 5562 5557
5662 5664 5666 5667 5668 5667 5666 5665 5662 5661 5659 5657 5655 5651 5650 5651 5650 5649 5647 5645 5642 5639 5636 5632 5629 5625 5621 5618 5614 5610 5605 5601 5597 5592 5588 5583 5578 5573 5568 5563 5558 5553 5548
5654 5657 5660 5660 5662 5662 5662 5661 5657 5655 5652 5651 5646 5641 5640 5642 5643 5642 5641 5639 5637 5634 5630 5627 5623 5619 5615 5611 5607 5603 5599 5595 5591 5586 5581 5576 5571 5565 5560 5555 5550 5544 5538
5646 5649 5653 5655 5655 5656 5657 5655 5654 5650 5648 5647 5643 5637 5633 5632 5635 5637 5635 5633 5631 5629 5625 5622 5618 5614 5609 5605 5601 5596 5592 5588 5584 5579 5574 5569 5563 5558 5552 5547 5541 5535 5528
5638 5642 5647 5649 5650 5651 5652 5651 5650 5649 5645 5641 5641 5638 5631 5630 5629 5629 5629 5628 5625 5622 5620 5616 5612 5608 5603 5599 5594 5589 5585 5580 5576 5572 5566 5561 5555 5550 5544 5538 5531 5525 5518
5631 5636 5640 5642 5644 5645 5647 5647 5646 5645 5643 5638 5635 5635 5634 5633 5627 5622 5621 5621 5619 5616 5614 5611 5607 5602 5598 5593 5588 5583 5578 5574 5569 5564 5559 5553 5547 5541 5535 5529 5522 5515 5507
5623 5629 5633 5636 5638 5640 5641 5642 5641 5639 5639 5638 5635 5631 5628 5626 5624 5621 5617 5614 5611 5610 5608 5605 5601 5597 5592 5587 5582 5577 5572 5567 5562 5556 5550 5545 5539 5532 5526 5519 5512 5504 5497
5616 5623 5627 5630 5633 5635 5636 5638 5637 5635 5635 5635 5633 5630 5627 5624 5620 5617 5613 5608 5605 5603 5601 5598 5594 5591 5586 5581 5576 5571 5565 5560 5555 5549 5543 5536 5530 5523 5516 5509 5502 5494 5486
5611 5618 5622 5625 5629 5631 5632 5633 5632 5631 5630 5630 5629 5626 5624 5622 5619 5615 5610 5604 5599 5595 5593 5590 5588 5584 5580 5575 5570 5565 5559 5553 5548 5541 5535 5528 5521 5514 5507 5499 5491 5483 5475
5608 5613 5617 5620 5624 5626 5629 5628 5628 5627 5626 5625 5624 5621 5618 5617 5614 5611 5607 5600 5593 5589 5586 5584 5581 5578 5574 5569 5564 5558 5552 5546 5540 5534 5527 5520 5512 5505 5497 5489 5481 5473 5465
5603 5607 5611 5615 5619 5621 5624 5624 5623 5623 5621 5620 5618 5616 5614 5611 5609 5606 5604 5600 5593 5586 5583 5579 5574 5571 5567 5562 5557 5551 5545 5540 5533 5526 5519 5512 5504 5496 5488 5480 5471 5463 5455
5599 5603 5606 5609 5614 5616 5618 5618 5619 5619 5617 5615 5613 5611 5608 5606 5603 5601 5598 5594 5590 5586 5580 5575 5569 5564 5559 5554 5549 5544 5538 5532 5525 5519 5511 5504 5496 5487 5479 5471 5463 5455 5447
5595 5598 5602 5605 5609 5612 5613 5614 5615 5615 5614 5611 5609 5607 5604 5601 5598 5595 5592 5588 5584 5580 5574 5567 5561 5557 5551 5546 5541 5535 5530 5524 5517 5510 5503 5495 5487 5479 5471 5463 5454 5446 5439
5590 5594 5598 5601 5604 5608 5610 5612 5612 5611 5609 5607 5605 5603 5601 5597 5593 5590 5587 5582 5578 5575 5569 5562 5555 5549 5544 5539 5533 5527 5521 5515 5509 5502 5494 5486 5478 5470 5462 5454 5446 5439 5431
5585 5590 5593 5597 5601 5604 5607 5608 5608 5608 5606 5604 5602 5600 5598 5593 5589 5586 5582 5578 5574 5569 5564 5558 5550 5542 5536 5531 5525 5519 5512 5506 5500 5493 5486 5478 5470 5462 5453 5446 5438 5431 5424
5579 5585 5589 5594 5598 5601 5603 5604 5604 5603 5601 5599 5598 5596 5594 5591 5587 5582 5577 5573 5568 5562 5557 5552 5544 5536 5529 5523 5517 5510 5503 5497 5491 5484 5477 5469 5461 5453 5445 5438 5431 5424 5417
5573 5578 5582 5588 5593 5596 5599 5600 5599 5598 5597 5594 5592 5591 5589 5587 5584 5579 5575 5569 5564 5558 5552 5546 5539 5531 5523 5515 5511 5504 5496 5489 5482 5475 5468 5461 5454 5446 5438 5430 5423 5416 5410
5564 5569 5575 5582 5587 5590 5593 5594 5593 5593 5591 5589 5588 5585 5583 5580 5578 5575 5572 5567 5562 5556 5549 5543 5536 5529 5522 5514 5506 5498 5489 5480 5474 5468 5460 5453 5446 5438 5431 5424 5417 5410 5403
5556 5562 5567 5574 5580 5583 5585 5587 5588 5587 5586 5585 5583 5579 5576 5575 5572 5569 5565 5561 5557 5554 5550 5543 5535 5529 5521 5513 5503 5492 5484 5476 5469 5462 5453 5446 5438 5431 5424 5417 5410 5404 5396
5547 5553 5560 5566 5571 5576 5579 5581 5580 5580 5579 5578 5576 5574 5572 5570 5566 5563 5558 5552 5549 5546 5542 5538 5533 5526 5519 5510 5502 5492 5481 5469 5460 5453 5446 5437 5431 5424 5419 5412 5404 5397 5390
5539 5546 5552 5557 5562 5568 5571 5573 5572 5571 5571 5571 5570 5569 5567 5565 5562 5557 5552 5546 5541 5536 5534 5530 5525 5519 5511 5503 5495 5484 5472 5463 5454 5447 5439 5431 5424 5418 5412 5406 5398 5391 5383
5531 5538 5543 5549 5555 5560 5563 5565 5565 5565 5565 5564 5563 5562 5561 5559 5556 5552 5548 5542 5536 5530 5525 5519 5514 5508 5501 5494 5487 5480 5471 5460 5449 5440 5434 5426 5417 5410 5403 5399 5392 5384 5376